Flag for Jordan Weather past 2 weeks in Amman, Jordan

Now
75 °F

Scattered clouds.


Feels Like: 78 °F
Forecast: 63 / 81 °F
Wind: 5 mph from West

Location: Amman Airport

Current Time: Sep 18, 2014 at 11:12:31 AM

Latest Report: Sep 18, 2014 at 10:00 AM


Visibility: 3 mi

Pressure: 30.01 "Hg

Humidity: 57%

Dew point: 59 °F

Location of AmmanLocation

Historic Weather in Amman — Graph

°F

Amman temperature yesterday

Maximum temperature yesterday: 90 °F (at 2:00 PM)
Minimum temperature yesterday: 68 °F (at 5:00 AM)
Average temperature yesterday: 79 °F

Past Weeks' High & Low Weather Summary

 TemperatureHumidityPressure
High90 °F (Sep 17, 2:00 PM)88% (Sep 11, 6:00 AM)30.04 "Hg (Sep 11, 6:00 AM)
Low64 °F (Sep 4, 6:00 AM)20% (Sep 17, 3:00 PM)29.80 "Hg (Sep 5, 5:00 PM)
Average75 °F53%29.95 "Hg
* Reported Sep 3 10:00 AM — Sep 18 10:00 AM, Amman, Weather by CustomWeather, © 2014

Note: Actual official high and low records may vary slightly from our data, if they occured in-between our weather recording intervals... More about our weather records

Advertising

Amman weather history for previous 24 hours

 ConditionsComfort  
Time TempWeatherWind HumidityBarometerVisibility
10:00 AM
Sep 18
75 °FScattered clouds.5 mph57%30.01 "Hg3 mi
9:00 AM73 °FHaze.3 mph69%30.01 "Hg3 mi
8:00 AM70 °FHaze.No wind69%30.01 "Hg2 mi
7:00 AM68 °FHaze.No wind78%29.95 "Hg2 mi
6:00 AM72 °FHaze.5 mph65%29.95 "Hg3 mi
5:00 AM72 °FHaze.5 mph65%29.92 "Hg3 mi
4:00 AM73 °FHaze.8 mph53%29.92 "Hg3 mi
3:00 AM73 °FHaze.8 mph47%29.92 "Hg3 mi
2:00 AM75 °FHaze.8 mph34%29.92 "Hg3 mi
1:00 AM77 °FHaze.6 mph32%29.92 "Hg3 mi
12:00 AM81 °FHaze.5 mph30%29.92 "Hg3 mi
11:00 PM
Sep 17
81 °FHaze.5 mph30%29.92 "Hg3 mi
10:00 PM82 °FHaze.5 mph26%29.92 "Hg3 mi
9:00 PM82 °FHaze.No wind26%29.89 "Hg3 mi
8:00 PM82 °FHaze.No wind26%29.89 "Hg3 mi
7:00 PM86 °FHaze.6 mph22%29.89 "Hg3 mi
6:00 PM88 °FHaze.9 mph21%29.89 "Hg3 mi
5:00 PM90 °FClear.9 mph21%29.89 "Hg4 mi
4:00 PM90 °FClear.9 mph20%29.89 "Hg4 mi
3:00 PM90 °FClear.10 mph20%29.89 "Hg4 mi
2:00 PM90 °FClear.7 mph24%29.92 "Hg4 mi
1:00 PM86 °FClear.5 mph29%29.92 "Hg4 mi
12:00 PM84 °FClear.7 mph29%29.95 "Hg4 mi
11:00 AM82 °FHaze.6 mph30%29.95 "Hg3 mi
Weather by CustomWeather, © 2014

See weather overviewHow to use our weather pages